Track SNAP-3 ALICE now! 10-day predictions SNAP-3 ALICE is classified as:
1 40970U 15058G 25182.75480509 .00014104 00000-0 57557-3 0 9997 2 40970 64.7641 192.7450 0081061 188.6462 171.3275 15.21640718 63043